Regional Weather Roundup
Issued by NWS Grand Forks, ND

Home | Current Version | Previous Version | Graphics & Text | Print | Product List | Glossary On
Versions: 1 2 3 4 5 6 7 8 9 10 11 12 13 14 15 16 17 18 19 20 21 22 23 24 25 26 27 28 29 30 31 32 33 34 35 36 37 38 39 40 41 42 43 44 45 46 47 48 49 50
000
ASUS43 KFGF 281110
RWRFGF
PRAIRIE TO PINES  WEATHER ROUNDUP
NATIONAL WEATHER SERVICE EASTERN NORTH DAKOTA/GRAND FORKS ND
600 AM CDT FRI AUG 28 2015

 **SATELLITE DATA USED TO AUGMENT SKY COVER AT AUTOMATED STATIONS**
 *****  WEATHER ACROSS EASTERN NORTH DAKOTA  *****

CITY           SKY/WX    TMP DP  RH WIND       PRES   REMARKS
GRAND FORKS    MOCLDY    63  62  97 S5        29.87R
GRAND FRKS AFB MOCLDY    63  62  97 S2        29.88R
GRAND FRKS NWS   N/A     63 N/A N/A S2          N/A
DEVILS LAKE    MOCLDY    66  55  68 W5        29.86R
FARGO          MOCLDY    66  64  93 S8        29.90S FOG
WAHPETON ARPT  CLOUDY    61  59  94 SE8       29.93S VSB 1/2
$$

 ***** WEATHER ACROSS CENTRAL AND WESTERN NORTH DAKOTA  *****

CITY           SKY/WX    TMP DP  RH WIND       PRES   REMARKS
BISMARCK       PTCLDY    63  60  90 S3        29.91S
MINOT          PTCLDY    67  58  72 SW15      29.82S
JAMESTOWN      CLEAR     61  59  93 S8        29.87F
MINOT AFB      PTCLDY    66  63  91 SW10      29.81R
GARRISON         N/A     61  57  87 SW5       29.87F
WILLISTON      PTCLDY    63  60  90 SW3       29.86S
DICKINSON      PTCLDY    60  54  80 W6        29.90S
HETTINGER      PTCLDY    59  55  87 S3        29.96S
$$

 *****  OTHER AIRPORT OBSERVATIONS IN OUR AREA  *****

CITY           SKY/WX    TMP DP  RH WIND       PRES   REMARKS
WALHALLA       FAIR      66  66 100 MISG      29.82F
GRAFTON AIRPOR FAIR      63  63 100 S7        29.84F
VALLEY CITY AR FOG       57  57 100 S7        29.89F VSB<1/4
CANDO          NOT AVBL
CAVALIER APRT  FAIR      64  63  94 CALM      29.81F
GWINNER          N/A     63  63 100 SW7       29.92S
SHEYENNE NWR     N/A     58  58  99 S5        29.95S
ROLLA          PTSUNNY   63  63 100 S7        29.85F
 ***** THE ABOVE OBSERVATIONS ARE NON NWS ARE NOT QUALITY
       CONTROLLED AND MAY MIS-REPORT RAIN FOR SNOW...
$$

  *****  WEATHER ACROSS NORTHERN MINNESOTA  *****

CITY           SKY/WX    TMP DP  RH WIND       PRES   REMARKS
FLAG ISLAND    CLOUDY    64  63  94 S3        29.86S FOG
WARROAD        CLOUDY    61  55  82 CALM      29.88S FOG
ROSEAU         MOCLDY    61  55  82 CALM      29.87F HAZE
HALLOCK        MOCLDY    64  63  94 S8        29.82F
THF RVR FALLS  CLOUDY   N/A N/A N/A S7        29.89S
BAUDETTE       FOG       59  58  96 SE3       29.89S VSB 3/4
WASKISH        MOCLDY    63  63 100 CALM      29.91R
CROOKSTON      PTCLDY    63  63 100 S3        29.89S
STEPHEN NDAWN    N/A     64  64 100 S6          N/A
GREENBUSH NDAW   N/A     64  64 100 S3          N/A
$$
  *****  WEATHER ACROSS CENTRAL AND WEST MINNESOTA  *****

CITY           SKY/WX    TMP DP  RH WIND       PRES   REMARKS
FOSSTON        PTCLDY    63  63 100 S8        29.92S
BEMIDJI        FOG       64  63  99 SW5       29.92F VSB 1/2
PARK RAPIDS    FOG       64  62  93 S6        29.95F VSB 1/2
ELBOW LAKE     FAIR      60  60  99 SE6       29.96R
WADENA         FOG       63  63 100 S5        29.95F VSB 1/4
DETROIT LAKES  CLOUDY    64  64 100 S6        29.94S FOG
MOORHEAD       MOCLDY    63  63 100 S5        29.92R FOG
FERGUS FALLS   PTCLDY    63  63 100 S7        29.94S FOG
MORRIS MN      CLOUDY    61  59  94 SE8       29.96R FOG
STAPLES        CLOUDY    61  61 100 S5        29.97R FOG
$$
  *****  WEATHER ELSEWHERE ACROSS MINNESOTA  *****

CITY           SKY/WX    TMP DP  RH WIND       PRES   REMARKS
DULUTH         CLOUDY    61  58  90 SW6       29.97S
INTRNTL FALLS  MOCLDY    61  60  97 CALM      29.92R
ELY            CLOUDY    61  57  88 SW3       29.96S
CLOQUET        CLOUDY    61  57  88 CALM      29.97F
WHEATON        CLOUDY    61  59  94 S5        29.97R FOG
BRAINERD       CLOUDY    59  59 100 S6        29.98R FOG
HIBBING        FOG       58  57  97 CALM      29.96F VSB 1
ALEXANDRIA     CLEAR     62  61  96 S6        29.98R
SAINT CLOUD    CLEAR     56  56 100 S3        29.98S FOG
MINNEAPOLIS    CLOUDY    64  60  87 SE6       30.00R
$$

  *****  WEATHER ACROSS SOUTH DAKOTA  *****

CITY           SKY/WX    TMP DP  RH WIND       PRES   REMARKS
SIOUX FALLS    CLOUDY    64  62  93 E8        29.90F
BROOKINGS      CLOUDY    64  61  88 SE7       29.96S
WATERTOWN      CLOUDY    65  62  90 SE5       29.94F
HURON          CLOUDY    66  64  93 NE5       29.91F
SISSETON         N/A     64  63  96 S5        29.94R
ABERDEEN       CLOUDY    62  61  96 CALM      29.93S FOG
MITCHELL       CLOUDY    66  65  96 N3        29.90R
PIERRE         CLOUDY    68  66  93 CALM      29.91S
MOBRIDGE       CLOUDY    66  66 100 CALM      29.91F
RAPID CITY     CLEAR     57  54  89 NE5       29.99S
$$

  *****  SOME WEATHER IN NEARBY STATES *****

CITY           SKY/WX    TMP DP  RH WIND       PRES   REMARKS
GLASGOW MT     CLEAR     61  51  70 CALM      29.89R
GREAT FALLS MT CLOUDY    65  38  36 SW14      30.04S HAZE
CHEYENNE WY    CLEAR     56  48  74 NW12      30.22S
SCOTTSBLUFF NE CLEAR     56  54  93 NW8       30.07S
OMAHA NE       CLOUDY    68  66  93 SE12      29.82F
DES MOINES IA  LGT RAIN  64  60  87 SE9       30.00R
DAVENPORT IA   CLOUDY    59  57  93 CALM      30.11R
CHICAGO IL     MOCLDY    59  55  87 S5        30.11S
EAU CLAIRE WI  CLOUDY    61  57  87 SE6       30.01F
LA CROSSE WI   CLOUDY    65  59  81 S12       30.04F
$$

  *****  SOME NATIONAL WEATHER *****

CITY           SKY/WX    TMP DP  RH WIND       PRES   REMARKS
LA GUARDIA NY  PTCLDY    67  55  65 CALM      30.15R
RALEIGH NC     PTCLDY    61  59  93 CALM      30.16R
ATLANTA GA     CLOUDY    70  66  87 E9        30.09R
NEW ORLEANS LA CLEAR     73  62  68 N7        29.97R
OKLAHOMA CITY  CLOUDY    72  63  73 SW6       30.00R
ALBUQUERQUE NM PTCLDY    66  54  65 SE3       30.20S
SALT LAKE CITY CLEAR     68  47  46 SE7       30.17S
LOS ANGELES CA CLEAR     73  68  84 CALM      29.88F
BOISE ID       PTCLDY    75  36  24 SE15      30.00F
SEATTLE WA     CLOUDY    64  51  62 SW9       29.99S
$$

*** WEATHER ACROSS MANITOBA...SASKATCHEWAN AND ONTARIO ***
                ***ONTARIO***

CITY           SKY/WX    TMP DP  RH WIND       PRES   REMARKS
GERALDTON      MOCLDY    46  46 100 S3        29.94F
THUNDER BAY    CLOUDY    50  48  93 SW2       29.96S
SIOUX LOOKOUT  CLOUDY    61  59  94 S5        29.90R
TORONTO        PTCLDY    54  48  82 NW5       30.20R
BIG TROUT LK   FOG       54  54 100 SE2       29.84  VSB 3/8
PICKLE LAKE    CLOUDY    55  54  94 S8        29.85
DRYDEN         MOCLDY    61  59  94 S6        29.89S
KENORA         LGT RAIN  63  63 100 S7        29.87S
$$
                *** MANITOBA***

CITY           SKY/WX    TMP DP  RH WIND       PRES   REMARKS
BRANDON        PTCLDY    61  59  94 S7        29.78F
DAUPHIN        CLEAR     61  57  88 W8        29.76R
ISLAND LAKE    PTCLDY    55  54  94 VRB2      29.81S
PILOT MOUND      N/A    N/A N/A N/A S7          N/A
THE PAS        CLOUDY    59  57  94 NW5       29.77R
THOMPSON       MOCLDY    46  45  93 E5        29.75S
WINNIPEG       LGT RAIN  66  63  88 S14       29.79F
LYNN LAKE      CLEAR     52  50  93 MISG      29.70S
CHURCHILL      PTCLDY    45  45 100 E3        29.75S
$$
                ***SASKATCHEWAN***

CITY           SKY/WX    TMP DP  RH WIND       PRES   REMARKS
ESTEVAN        CLOUDY    59  55  88 W5        29.83R
KINDERSLEY     MOCLDY    54  52  94 NE7       29.85R
LLOYDMINSTER   MOCLDY    61  55  82 N6        29.85S
PRINCE ALBERT  FOG       48  46  93 CALM      29.79R VSB 1/2
REGINA         PTCLDY    57  55  94 N5        29.83S
YORKTON        CLEAR     59  57  94 W3        29.80R
N. BATTLEFORD  CLOUDY    57  55  94 SE5       29.82F
LA RONGE       CLEAR     55  52  88 S5        29.72S
SASKATOON      MOCLDY    54  54 100 S3        29.85R
SWIFT CURRENT  CLEAR     59  48  67 SW13      29.85S HAZE
$$
NOTE: THESE ARE AUTOMATED STATIONS WITH LIMITED QUALITY CONTROL
      "FAIR" INDICATES FEW OR NO CLOUDS BELOW 12,000 FEET WITH NO
      SIGNIFICANT WEATHER AND/OR OBSTRUCTIONS TO VISIBILITY.
      SKY/WX - SKY CONDITION AND SIGNIFICANT WEATHER.
      TMP - AIR TEMPERATURE.    DP   - DEWPOINT TEMPERATURE.
      RH  - RELATIVE HUMIDITY.  PRES - PRESSURE.
      HX  - HEAT INDEX.         WCI  - WIND CHILL INDEX.
$



USA.gov is the U.S. government's official web portal to all federal, state and local government web resources and services.